Simultaneous Nadir Overpasses (SNOs) Predictions

Prediction of SNOs between AQUA and METOP-B Satellite Orbit:

Table of predicted SNOs for the next 14.0 days since TLE Epoch: 10/4/2013
Index Date (AQUA) Time (AQUA) Lat,Lon (AQUA) SZA (AQUA ) Date (METOP-B) Time (METOP-B) Lat,Lon (METOP-B) SZA (METOP-B ) Distance(km) Time Diff (sec)
1 10/05/2013 03:58:49 73.67, 114.85 78.37 10/05/2013 03:57:42 73.69, 114.81 78.40 2.47 67
2 10/05/2013 04:48:16 -73.75, -77.68 101.54 10/05/2013 04:48:22 -73.74, -77.75 101.55 2.45 6
3 10/05/2013 05:37:47 73.93, 89.56 78.67 10/05/2013 05:38:59 73.92, 90.01 78.65 13.87 72
4 10/07/2013 23:33:03 73.69,-178.74 79.46 10/07/2013 23:32:03 73.71,-178.74 79.49 2.43 60
5 10/08/2013 00:22:30 -73.76, -11.26 100.45 10/08/2013 00:22:43 -73.76, -11.30 100.45 1.27 13
6 10/08/2013 01:12:06 74.20, 155.38 80.02 10/08/2013 01:13:15 74.18, 157.06 79.98 51.18 69
7 10/10/2013 19:07:16 73.73,-112.38 80.57 10/10/2013 19:06:23 73.72,-112.31 80.57 2.32 53
8 10/10/2013 19:56:43 -73.80, 55.11 99.35 10/10/2013 19:57:03 -73.77, 55.14 99.37 2.98 20
9 10/10/2013 20:46:24 74.50,-138.88 81.40 10/10/2013 20:47:29 74.49,-135.74 81.35 93.35 65
10 10/13/2013 14:41:29 73.74, -45.95 81.63 10/13/2013 14:40:44 73.73, -45.88 81.63 2.49 45
11 10/13/2013 15:30:56 -73.81, 121.54 98.29 10/13/2013 15:31:24 -73.78, 121.58 98.31 2.85 28
12 10/16/2013 10:15:41 73.72, 20.53 82.66 10/16/2013 10:15:05 73.73, 20.54 82.67 1.38 36
13 10/16/2013 11:05:08 -73.79,-171.97 97.27 10/16/2013 11:05:45 -73.79,-172.00 97.27 1.01 37




NCC Satellite Simultaneous Nadir Overpasses (SNOs) Prediction Service
